Location: Krakow
(50.0830°N, 19.9170°E)
Time: 05:12:18
(UTC+01:00)

SR - Pass Details

Date: 15 February 2023
Orbit: 582 x 867 km, 66.7° (Epoch: 20 March)

Event Time Altitude Azimuth Distance (km) Brightness Sun altitude
Rises 12:20:27 0° 232° (SW) 3,137 ? 27.0°
Reaches altitude 10° 12:22:58 10° 238° (WSW) 2,171 ? 26.9°
Maximum altitude 12:27:43 48° 313° (NW) 872 ? 26.8°
Drops below altitude 10° 12:32:08 10° 28° (NNE) 2,020 ? 26.7°
Sets 12:34:24 0° 35° (NE) 2,896 ? 26.6°
